Location: Heppenheim
(49.6410°N, 8.6370°E)
Time: 16:51:47
(UTC+02:00)

ISS - Pass Details

Date: 12 May 2026
Orbit: 414 x 424 km, 51.6° (Epoch: 10 May)

Event Time Altitude Azimuth Distance (km) Brightness Sun altitude
Rises 22:30:13 0° 258° (WSW) 2,348 0.5 -12.2°
Reaches altitude 10° 22:32:19 10° 260° (W) 1,487 -0.6 -12.4°
Maximum altitude 22:35:39 76° 347° (NNW) 433 -3.6 -12.8°
Drops below altitude 10° 22:39:00 10° 73° (ENE) 1,493 -1.2 -13.1°
Enters shadow 22:40:29 - 75° (ENE) 2,108 -0.4 -13.3°
